GW3446 Weather Reports


Display with metric or nautical units.
time (UTC)temp
F
wind
direction
speed
MPH
gust
MPH
rain 1hr
in
rain 24hr
in
rain mn
in
humidity
%
barometer
mb
20260510191513 65 83 7.0 19.0 0.00 0.07 0.07 43 1024.4
20260510190020 64 40 8.0 17.0 0.00 0.07 0.07 41 1024.6
20260510184531 63 33 6.0 22.0 0.00 0.07 0.07 43 1024.8
20260510183026 63 57 10.0 20.0 0.00 0.07 0.07 44 1024.9
20260510181516 62 41 8.0 17.0 0.00 0.07 0.07 47 1025.0
20260510180021 62 51 7.0 18.0 0.00 0.07 0.07 48 1025.1
20260510174506 62 352 10.0 21.0 0.00 0.07 0.07 47 1025.2
20260510173012 61 21 11.0 15.0 0.00 0.07 0.07 51 1025.1
20260510171519 60 44 11.0 17.0 0.00 0.07 0.07 52 1025.1
20260510170024 59 33 10.0 16.0 0.00 0.07 0.07 58 1025.0
20260510164508 57 53 7.0 16.0 0.00 0.07 0.07 64 1025.0
20260510163012 56 71 11.0 19.0 0.00 0.07 0.07 68 1024.8
20260510161519 55 61 8.0 17.0 0.00 0.07 0.07 72 1024.9
20260510160025 52 55 7.0 19.0 0.01 0.07 0.07 76 1024.3
20260510154511 50 67 11.0 17.0 0.01 0.07 0.07 80 1024.2
20260510153019 48 72 7.0 16.0 0.03 0.07 0.07 85 1023.8
20260510151522 48 45 5.0 11.0 0.05 0.07 0.07 87 1024.0
20260510150009 47 57 6.0 16.0 0.06 0.06 0.06 87 1023.5
20260510144518 47 38 8.0 15.0 0.06 0.06 0.06 87 1023.7
20260510143006 47 44 10.0 17.0 0.04 0.04 0.04 87 1023.4
20260510141504 47 43 7.0 14.0 0.02 0.02 0.02 86 1024.2
20260510140008 47 51 8.0 18.0 0.00 0.00 0.00 83 1024.4
20260510134514 49 342 8.0 15.0 0.00 0.00 0.00 83 1024.0
20260510130013 50 12 12.0 21.0 0.00 0.00 0.00 81 1022.8
20260510124517 51 47 8.0 16.0 0.00 0.00 0.00 77 1022.4
20260510121506 52 352 8.0 15.0 0.00 0.00 0.00 70 1021.7
20260510120014 53 25 9.0 16.0 0.00 0.00 0.00 66 1021.1
20260510114518 55 20 8.0 17.0 0.00 0.00 0.00 63 1020.7
20260510113005 55 53 10.0 16.0 0.00 0.00 0.00 61 1020.0
20260510111506 54 29 9.0 18.0 0.00 0.00 0.00 60 1019.2
20260510110030 54 90 9.0 18.0 0.00 0.00 0.00 60 1018.5
20260510104520 55 76 8.0 17.0 0.00 0.00 0.00 59 1018.8
20260510103006 55 51 10.0 19.0 0.00 0.00 0.00 58 1018.9
20260510101510 56 38 11.0 17.0 0.00 0.00 0.00 58 1019.2
20260510094522 56 69 10.0 21.0 0.00 0.00 0.00 59 1018.8
20260510093008 56 42 12.0 23.0 0.00 0.00 0.00 59 1018.8
20260510091511 56 55 12.0 23.0 0.00 0.00 0.00 60 1018.5
20260510090025 56 34 9.0 24.0 0.00 0.00 0.00 60 1018.3
20260510084524 56 56 13.0 22.0 0.00 0.00 0.00 61 1018.1
20260510083013 56 51 12.0 24.0 0.00 0.00 0.00 63 1018.2
20260510081516 56 42 11.0 20.0 0.00 0.00 0.00 64 1018.0
20260510080019 56 36 13.0 23.0 0.00 0.00 0.00 64 1017.8
20260510074525 56 38 15.0 23.0 0.00 0.00 0.00 64 1018.1
20260510073010 56 22 14.0 26.0 0.00 0.00 0.00 65 1018.3
20260510070004 56 27 8.0 16.0 0.00 0.00 0.00 73 1018.2
20260510064503 56 50 8.0 16.0 0.00 0.00 0.00 75 1017.9
20260510060003 55 51 8.0 14.0 0.00 0.00 0.00 75 1015.5
20260510054503 56 62 7.0 14.0 0.00 0.00 0.00 72 1014.9
20260510053004 57 57 7.0 12.0 0.00 0.00 0.00 69 1014.7
20260510050003 58 90 4.0 9.0 0.00 0.00 0.00 68 1014.4
20260510044503 59 61 3.0 11.0 0.00 0.00 0.00 67 1014.1
20260510043004 59 73 5.0 10.0 0.00 0.00 0.00 69 1014.1
20260510041504 60 62 4.0 9.0 0.00 0.00 0.00 66 1013.9
20260510033003 63 98 5.0 12.0 0.00 0.00 0.00 60 1012.7
20260510031504 64 94 2.0 10.0 0.00 0.00 0.00 55 1012.1
20260510030007 64 94 0.0 9.0 0.00 0.00 0.00 56 1011.3
20260510021503 71 22 4.0 13.0 0.00 0.00 0.00 37 1009.6
20260510020004 75 338 4.0 12.0 0.00 0.00 0.00 31 1009.1
20260510014504 76 304 4.0 11.0 0.00 0.00 0.00 30 1008.5
20260510011506 80 360 5.0 15.0 0.00 0.00 0.00 26 1007.8
20260510010006 81 351 4.0 10.0 0.00 0.00 0.00 25 1007.6
20260510004504 83 25 4.0 15.0 0.00 0.00 0.00 25 1007.4
20260510003013 85 225 6.0 15.0 0.00 0.00 0.00 23 1007.4
20260510000008 85 44 3.0 11.0 0.00 0.00 0.00 26 1007.5
20260509234513 84 264 2.0 15.0 0.00 0.00 0.00 23 1007.5
20260509233004 84 188 7.0 14.0 0.00 0.00 0.00 24 1007.6
20260509231508 81 115 5.0 10.0 0.00 0.00 0.00 31 1007.6
20260509230006 80 212 2.0 4.0 0.00 0.00 0.00 30 1007.8
20260509224509 83 211 2.0 11.0 0.00 0.00 0.00 26 1007.5
20260509223004 82 200 3.0 10.0 0.00 0.00 0.00 29 1007.4
20260509221509 80 170 1.0 6.0 0.00 0.00 0.00 27 1007.3
20260509220012 80 262 2.0 11.0 0.00 0.00 0.00 30 1007.5
20260509213011 84 215 9.0 17.0 0.00 0.00 0.00 21 1007.2
20260509211511 86 269 10.0 21.0 0.00 0.00 0.00 20 1007.2
20260509210010 85 164 9.0 19.0 0.00 0.00 0.00 21 1007.8
20260509204508 87 207 10.0 21.0 0.00 0.00 0.00 21 1008.2
20260509201511 87 204 12.0 24.0 0.00 0.00 0.00 21 1008.8
20260509200011 86 221 14.0 24.0 0.00 0.00 0.00 22 1008.9
20260509194512 85 200 10.0 24.0 0.00 0.00 0.00 23 1009.3